TimeEDT,TemperatureF,Dew PointF,Humidity,Sea Level PressureIn,VisibilityMPH,Wind Direction,Wind SpeedMPH,Gust SpeedMPH,PrecipitationIn,Events,Conditions,WindDirDegrees,DateUTC
12:15 AM,66.2,60.8,83,30.25,10.0,Calm,Calm,-,N/A,,Unknown,0,2012-10-14 04:15:00
12:35 AM,66.2,62.6,88,30.25,10.0,ESE,3.5,-,N/A,,Unknown,120,2012-10-14 04:35:00
1:15 AM,66.2,62.6,88,30.25,10.0,ESE,4.6,-,N/A,,Unknown,120,2012-10-14 05:15:00
1:35 AM,64.4,62.6,94,30.24,10.0,SE,4.6,-,N/A,,Unknown,130,2012-10-14 05:35:00
1:55 AM,64.4,64.4,100,30.24,10.0,SE,4.6,-,N/A,,Unknown,130,2012-10-14 05:55:00
2:15 AM,64.4,64.4,100,30.24,10.0,SE,4.6,-,N/A,,Unknown,140,2012-10-14 06:15:00
2:35 AM,64.4,64.4,100,30.24,10.0,SE,3.5,-,N/A,,Unknown,130,2012-10-14 06:35:00
2:55 AM,64.4,64.4,100,30.24,10.0,ESE,3.5,-,N/A,,Unknown,120,2012-10-14 06:55:00
3:15 AM,64.4,64.4,100,30.23,10.0,ESE,4.6,-,N/A,,Unknown,120,2012-10-14 07:15:00
3:35 AM,64.4,64.4,100,30.23,10.0,SE,4.6,-,N/A,,Unknown,130,2012-10-14 07:35:00
3:55 AM,64.4,62.6,94,30.22,10.0,ESE,4.6,-,N/A,,Unknown,120,2012-10-14 07:55:00
4:15 AM,62.6,62.6,100,30.20,10.0,ESE,4.6,-,N/A,,Unknown,120,2012-10-14 08:15:00
4:35 AM,62.6,62.6,100,30.20,10.0,Calm,Calm,-,N/A,,Unknown,0,2012-10-14 08:35:00
4:55 AM,62.6,62.6,100,30.20,10.0,Calm,Calm,-,N/A,,Unknown,0,2012-10-14 08:55:00
5:15 AM,62.6,62.6,100,30.20,10.0,Calm,Calm,-,N/A,,Unknown,0,2012-10-14 09:15:00
5:35 AM,62.6,62.6,100,30.20,7.0,Calm,Calm,-,N/A,,Unknown,0,2012-10-14 09:35:00
5:55 AM,60.8,60.8,100,30.20,7.0,East,3.5,-,N/A,,Unknown,100,2012-10-14 09:55:00
6:15 AM,60.8,60.8,100,30.20,7.0,Calm,Calm,-,N/A,,Unknown,0,2012-10-14 10:15:00
6:35 AM,60.8,60.8,100,30.21,3.0,Calm,Calm,-,N/A,,Mist,0,2012-10-14 10:35:00
6:55 AM,60.8,60.8,100,30.20,5.0,Calm,Calm,-,N/A,,Mist,0,2012-10-14 10:55:00
7:15 AM,60.8,60.8,100,30.20,4.0,East,3.5,-,N/A,,Mist,90,2012-10-14 11:15:00
7:35 AM,60.8,60.8,100,30.21,5.0,East,3.5,-,N/A,,Mist,80,2012-10-14 11:35:00
7:55 AM,60.8,60.8,100,30.20,4.0,East,3.5,-,N/A,,Mist,80,2012-10-14 11:55:00
8:15 AM,60.8,60.8,100,30.21,3.0,Calm,Calm,-,N/A,,Mist,0,2012-10-14 12:15:00
8:35 AM,60.8,60.8,100,30.21,5.0,ENE,3.5,-,N/A,,Mist,70,2012-10-14 12:35:00
8:55 AM,62.6,62.6,100,30.21,7.0,NE,4.6,-,N/A,,Unknown,50,2012-10-14 12:55:00
9:15 AM,64.4,62.6,94,30.21,10.0,ENE,3.5,-,N/A,,Unknown,70,2012-10-14 13:15:00
9:35 AM,64.4,62.6,94,30.21,10.0,ESE,4.6,-,N/A,,Unknown,110,2012-10-14 13:35:00
9:55 AM,69.8,64.4,83,30.21,10.0,SE,5.8,-,N/A,,Unknown,130,2012-10-14 13:55:00
10:15 AM,71.6,64.4,78,30.22,10.0,ESE,5.8,-,N/A,,Unknown,120,2012-10-14 14:15:00
10:35 AM,71.6,64.4,78,30.22,10.0,SSE,4.6,-,N/A,,Unknown,160,2012-10-14 14:35:00
10:55 AM,73.4,66.2,78,30.22,10.0,SE,6.9,-,N/A,,Unknown,140,2012-10-14 14:55:00
11:15 AM,77.0,68.0,74,30.22,10.0,South,6.9,-,N/A,,Unknown,170,2012-10-14 15:15:00
11:35 AM,77.0,68.0,74,30.22,10.0,Calm,Calm,-,N/A,,Unknown,0,2012-10-14 15:35:00
11:55 AM,78.8,68.0,69,30.22,10.0,SE,4.6,-,N/A,,Unknown,140,2012-10-14 15:55:00
12:15 PM,78.8,68.0,69,30.22,10.0,SE,4.6,-,N/A,,Unknown,140,2012-10-14 16:15:00
12:35 PM,80.6,66.2,61,30.21,10.0,South,4.6,-,N/A,,Unknown,190,2012-10-14 16:35:00
12:55 PM,80.6,66.2,61,30.21,10.0,SSW,6.9,-,N/A,,Unknown,210,2012-10-14 16:55:00
1:15 PM,80.6,64.4,58,30.20,10.0,Calm,Calm,-,N/A,,Unknown,0,2012-10-14 17:15:00
1:35 PM,80.6,64.4,58,30.19,10.0,West,5.8,-,N/A,,Unknown,260,2012-10-14 17:35:00
1:55 PM,80.6,64.4,58,30.17,10.0,SSW,6.9,-,N/A,,Unknown,200,2012-10-14 17:55:00
2:15 PM,82.4,64.4,54,30.16,10.0,SSW,6.9,-,N/A,,Unknown,210,2012-10-14 18:15:00
2:35 PM,84.2,64.4,51,30.15,10.0,SW,5.8,-,N/A,,Unknown,230,2012-10-14 18:35:00
2:55 PM,82.4,64.4,54,30.14,10.0,SW,4.6,-,N/A,,Unknown,230,2012-10-14 18:55:00
3:15 PM,82.4,64.4,54,30.13,10.0,SW,3.5,-,N/A,,Unknown,230,2012-10-14 19:15:00
3:35 PM,82.4,64.4,54,30.12,10.0,SSW,6.9,-,N/A,,Unknown,200,2012-10-14 19:35:00
3:55 PM,82.4,64.4,54,30.12,10.0,WSW,4.6,-,N/A,,Unknown,250,2012-10-14 19:55:00
4:15 PM,82.4,64.4,54,30.11,10.0,SSW,5.8,-,N/A,,Unknown,210,2012-10-14 20:15:00
4:35 PM,82.4,64.4,54,30.10,10.0,SSW,6.9,-,N/A,,Unknown,210,2012-10-14 20:35:00
4:55 PM,84.2,62.6,48,30.10,10.0,SW,3.5,-,N/A,,Unknown,230,2012-10-14 20:55:00
5:15 PM,82.4,64.4,54,30.10,10.0,WSW,3.5,-,N/A,,Unknown,250,2012-10-14 21:15:00
5:35 PM,80.6,64.4,58,30.09,10.0,WSW,4.6,-,N/A,,Unknown,240,2012-10-14 21:35:00
5:55 PM,80.6,64.4,58,30.08,10.0,SSW,3.5,-,N/A,,Unknown,200,2012-10-14 21:55:00
6:15 PM,80.6,64.4,58,30.08,10.0,SW,3.5,-,N/A,,Unknown,230,2012-10-14 22:15:00
6:35 PM,78.8,66.2,65,30.08,10.0,Calm,Calm,-,N/A,,Unknown,0,2012-10-14 22:35:00
6:55 PM,78.8,68.0,69,30.07,10.0,Calm,Calm,-,N/A,,Unknown,0,2012-10-14 22:55:00
7:15 PM,77.0,68.0,74,30.07,10.0,Calm,Calm,-,N/A,,Unknown,0,2012-10-14 23:15:00
7:35 PM,73.4,68.0,83,30.07,10.0,SSW,3.5,-,N/A,,Unknown,200,2012-10-14 23:35:00
7:55 PM,73.4,68.0,83,30.06,10.0,South,4.6,-,N/A,,Unknown,170,2012-10-14 23:55:00
8:15 PM,73.4,68.0,83,30.04,10.0,SSE,4.6,-,N/A,,Unknown,150,2012-10-15 00:15:00
8:35 PM,73.4,68.0,83,30.04,10.0,South,4.6,-,N/A,,Unknown,170,2012-10-15 00:35:00
8:55 PM,73.4,68.0,83,30.05,10.0,South,3.5,-,N/A,,Unknown,190,2012-10-15 00:55:00
9:15 PM,73.4,68.0,83,30.06,10.0,South,3.5,-,N/A,,Unknown,170,2012-10-15 01:15:00
9:35 PM,73.4,68.0,83,30.05,10.0,SSE,4.6,-,N/A,,Unknown,160,2012-10-15 01:35:00
9:55 PM,73.4,66.2,78,30.05,10.0,SSE,5.8,-,N/A,,Unknown,160,2012-10-15 01:55:00
10:15 PM,73.4,68.0,83,30.05,10.0,SSE,8.1,-,N/A,,Unknown,160,2012-10-15 02:15:00
10:35 PM,73.4,68.0,83,30.05,10.0,South,6.9,-,N/A,,Unknown,180,2012-10-15 02:35:00
10:55 PM,71.6,68.0,88,30.06,10.0,South,5.8,-,N/A,,Unknown,180,2012-10-15 02:55:00
11:15 PM,71.6,68.0,88,30.06,10.0,South,4.6,-,N/A,,Unknown,180,2012-10-15 03:15:00
11:35 PM,71.6,69.8,94,30.05,10.0,South,4.6,-,N/A,,Unknown,190,2012-10-15 03:35:00
11:55 PM,71.6,69.8,94,30.04,10.0,South,5.8,-,N/A,,Unknown,180,2012-10-15 03:55:00